Location: Columbia
(38.9520°N, 92.3340°W)
Time: 23:31:06
(UTC-05:00)

SJ-11-01 - Visible Passes

Search period start: 01 August 2014 00:00
Search period end: 11 August 2014 00:00
Orbit: 686 x 700 km, 98.0° (Epoch: 01 August)

Date Brightness Start Highest point End Pass type
(mag) Time Alt. Az. Time Alt. Az. Time Alt. Az.
01 Aug 4.3 21:22:37 10° SSE 21:27:18 85° WSW 21:32:03 10° NNW visible
02 Aug 5.9 22:03:01 10° SSW 22:07:11 32° W 22:11:25 10° NNW visible
03 Aug 4.4 21:04:43 10° SSE 21:09:21 62° ENE 21:14:01 10° N visible
03 Aug 7.0 22:45:25 10° WSW 22:47:18 12° W 22:49:12 10° WNW visible
04 Aug 5.1 21:44:35 10° S 21:49:07 49° W 21:53:43 10° NNW visible
05 Aug 4.9 20:47:03 10° SE 20:51:26 40° ENE 20:55:51 10° N visible
05 Aug 6.6 22:25:48 10° SW 22:29:08 19° W 22:32:29 10° NW visible
06 Aug 4.4 21:26:25 10° S 21:31:06 77° WSW 21:35:51 10° NNW visible
07 Aug 6.0 22:06:56 10° SSW 22:11:00 29° W 22:15:07 10° NW visible
08 Aug 4.3 21:08:28 10° SSE 21:13:07 69° ENE 21:17:50 10° N visible
08 Aug 7.1 22:49:53 10° WSW 22:51:08 11° W 22:52:24 10° WNW visible
09 Aug 5.3 21:48:26 10° S 21:52:55 45° W 21:57:28 10° NNW visible
10 Aug 4.7 20:50:44 10° SE 20:55:12 44° ENE 20:59:42 10° N visible
10 Aug 6.7 22:29:51 10° SW 22:32:57 17° W 22:36:05 10° NW visible
